Home > Weather > Prievidza > Past weeks

Flag for Slovakia Past Weather in Prievidza, Slovakia — Yesterday and Last 2 Weeks

Now
80 °F

Passing clouds.


Feels Like: 79 °F
Forecast: 53 / 87 °F
Wind: N/A

Location: Prievidza

Current Time: Jun 29, 2016 at 1:12:25 PM

Latest Report: Jun 29, 2016 at 12:00 PM


Visibility: 25 mi

Pressure: 29.95 "Hg

Humidity: 35%

Dew Point: 50 °F

Location of PrievidzaLocation

Past Weather in Prievidza — Graph

°F

Prievidza Temperature Yesterday

Maximum temperature yesterday: 76 °F (at 5:00 PM)
Minimum temperature yesterday: 60 °F (at 11:00 PM)
Average temperature yesterday: 67 °F

High & Low Weather Summary for the Past Weeks

 TemperatureHumidityPressure
High94 °F (Jun 24, 4:00 PM)94% (Jun 16, 2:00 AM)30.27 "Hg (Jun 16, 2:00 AM)
Low50 °F (Jun 18, 4:00 AM)35% (Jun 29, 12:00 PM)29.44 "Hg (Jun 14, 2:00 PM)
Average71 °F68%29.94 "Hg
* Reported Jun 14 12:00 PM — Jun 29 12:00 PM, Prievidza, Weather by CustomWeather, © 2016

Note: Actual official high and low records may vary slightly from our data, if they occured in-between our weather recording intervals... More about our weather records

Advertising

Prievidza Weather History for the Previous 24 Hours

Scroll right to see more
 ConditionsComfort  
Time TempWeatherWind HumidityBarometerVisibility
12:00 PM
Wed, Jun 29
80 °FPassing clouds.N/A35%29.95 "Hg25 mi
11:00 AM77 °FWarm.N/A45%29.97 "HgN/A
10:00 AM75 °FPassing clouds.N/A51%29.97 "Hg22 mi
9:00 AM70 °FMild.N/A60%30.00 "HgN/A
8:00 AM66 °FPassing clouds.N/A69%30.01 "Hg19 mi
7:00 AM60 °FCool.N/A80%30.02 "Hg11 mi
6:00 AM55 °FCool.No wind89%30.03 "Hg8 mi
5:00 AM52 °FFog.No wind88%30.03 "Hg6 mi
3:00 AM55 °FCool.N/A85%30.03 "Hg15 mi
2:00 AM56 °FCool.N/A85%30.03 "Hg16 mi
1:00 AM56 °FCool.N/A85%30.03 "Hg12 mi
12:00 AM58 °FCool.1 mph82%30.02 "Hg13 mi
11:00 PM
Tue, Jun 28
60 °FCool.N/A77%30.01 "Hg19 mi
10:00 PM62 °FClear.N/A73%30.01 "Hg25 mi
9:00 PM68 °FClear.N/A58%29.98 "Hg25 mi
8:00 PM72 °FSunny.N/A49%29.96 "Hg28 mi
7:00 PM74 °FPassing clouds.6 mph42%29.96 "Hg25 mi
6:00 PM72 °FPassing clouds.3 mph49%29.96 "Hg31 mi
5:00 PM76 °FScattered clouds.7 mph43%29.95 "Hg22 mi
4:00 PM75 °FScattered clouds.5 mph47%29.96 "Hg28 mi
3:00 PM74 °FPartly sunny.8 mph47%29.97 "Hg22 mi
2:00 PM72 °FPartly sunny.7 mph54%29.99 "Hg19 mi
1:00 PM72 °FPartly sunny.6 mph54%29.99 "Hg19 mi
Weather by CustomWeather, © 2016

See weather overviewHow to use our weather pages